Weather History for Biggin Hill, United Kingdom

Change the Weather History Date:

Monday, December 16, 2013

  Actual Average Record
Temperature  
Mean Temperature 50 °F -  
Max Temperature 53 °F 41 °F 53 °F (2013)
Min Temperature 46 °F 35 °F 26 °F (2003)
Degree Days  
Heating Degree Days 16    
Moisture  
Dew Point 49 °F    
Average Humidity 93    
Maximum Humidity 94    
Minimum Humidity 87    
Precipitation  
Precipitation 0.00 in - - ()
Sea Level Pressure  
Sea Level Pressure 30.04 in    
Wind  
Wind Speed 15 mph ()    
Max Wind Speed 22 mph    
Max Gust Speed 33 mph    
Visibility 5.7 miles    
Events Rain    
Averages and records for this station are not official NWS values.
T = Trace of Precipitation, MM = Missing Value Source: Averaged Metar Reports

Daily Weather History Graph

Daily Weather History Graph

Search for Another Location

Airport:

Trip Planner

Search our weather history database for the weather conditions in past years. The results will help you decide how hot, cold, wet, or windy it might be!

Date:

Astronomy

Dec. 16, 2013 Rise Set
Actual Time 7:59 AM GMT 3:52 PM GMT
Civil Twilight 7:19 AM GMT 4:32 PM GMT
Nautical Twilight 6:36 AM GMT 5:14 PM GMT
Astronomical Twilight 5:55 AM GMT 5:55 PM GMT
Moon 3:37 PM GMT (12/16) 6:47 AM GMT (12/16)
Length of Visible Light 9h 13m
Length of Day
7h 52m
Waxing Gibbous, 99% of the Moon is Illuminated
Dec 16
Waxing Gibbous
Dec 17
Full
Dec 25
Last Quarter
Jan 1
New
Jan 8
First Quarter

Hourly Weather History & Observations

Time (GMT) Temp. Windchill Dew Point Humidity Pressure Visibility Wind Dir Wind Speed Gust Speed Precip Events Conditions
6:50 AM 51.8 °F - 48.2 °F 88% 29.98 in 3.7 mi SSW 18.4 mph 31.1 mph N/A Rain Rain
7:20 AM 50.0 °F - 48.2 °F 94% 29.98 in 5.6 mi SSW 20.7 mph - N/A   Mostly Cloudy
7:50 AM 50.0 °F - 48.2 °F 94% 30.01 in 5.6 mi SSW 19.6 mph 32.2 mph N/A   Mostly Cloudy
8:20 AM 51.8 °F - 48.2 °F 88% 30.01 in 5.0 mi SSW 20.7 mph 33.4 mph N/A   Light Drizzle
8:50 AM 50.0 °F - 46.4 °F 87% 30.01 in 6.2 mi SSW 21.9 mph 33.4 mph N/A Rain Light Rain
9:50 AM 50.0 °F - 48.2 °F 94% 30.01 in 6.2 mi SSW 20.7 mph 33.4 mph N/A   Mostly Cloudy
10:20 AM 51.8 °F - 48.2 °F 88% 30.04 in 5.6 mi SW 19.6 mph 31.1 mph N/A Rain Light Rain
10:50 AM 51.8 °F - 50.0 °F 94% 30.01 in 6.2 mi SSW 19.6 mph 31.1 mph N/A Rain Light Rain
11:20 AM 53.6 °F - 51.8 °F 94% 30.01 in 6.2 mi SSW 20.7 mph 33.4 mph N/A   Mostly Cloudy
11:50 AM 51.8 °F - 50.0 °F 94% 30.01 in 6.2 mi SW 19.6 mph - N/A Rain Light Rain
12:20 PM 51.8 °F - 50.0 °F 94% 30.01 in 6.2 mi SW 19.6 mph - N/A   Mostly Cloudy
12:50 PM 51.8 °F - 50.0 °F 94% 30.01 in 6.2 mi SW 19.6 mph - N/A   Mostly Cloudy
1:50 PM 51.8 °F - 50.0 °F 94% 30.01 in 6.2 mi SW 17.3 mph 31.1 mph N/A   Mostly Cloudy
2:20 PM 51.8 °F - 50.0 °F 94% 30.04 in 3.1 mi SW 16.1 mph - N/A Rain Light Rain
2:50 PM 51.8 °F - 50.0 °F 94% 30.04 in 6.2 mi SW 13.8 mph - N/A   Mostly Cloudy
3:20 PM 51.8 °F - 50.0 °F 94% 30.04 in 6.2 mi SW 12.7 mph - N/A   Mostly Cloudy
3:50 PM 53.6 °F - 51.8 °F 94% 30.04 in 6.2 mi SW 15.0 mph - N/A   Mostly Cloudy
4:20 PM 53.6 °F - 51.8 °F 94% 30.04 in 6.2 mi SW 12.7 mph - N/A   Mostly Cloudy
4:50 PM 53.6 °F - 51.8 °F 94% 30.06 in 5.0 mi SW 12.7 mph - N/A Rain Light Rain
5:20 PM 48.2 °F - 46.4 °F 93% 30.09 in 5.0 mi WNW 10.4 mph - N/A Rain Light Rain
5:50 PM 50.0 °F - 48.2 °F 94% 30.09 in 5.6 mi West 4.6 mph - N/A Rain Light Rain
6:20 PM 48.2 °F - 46.4 °F 93% 30.09 in 6.2 mi SSW 2.3 mph - N/A Rain Light Rain
6:50 PM 46.4 °F - 44.6 °F 93% 30.09 in 6.2 mi SSW 2.3 mph - N/A Rain Light Rain
7:20 PM 46.4 °F - 44.6 °F 93% 30.09 in 6.2 mi WSW 2.3 mph - N/A Rain Light Rain
7:50 PM 46.4 °F 45.2 °F 44.6 °F 93% 30.09 in 6.2 mi West 3.5 mph - N/A Rain Light Rain